Theta_e
319 318 317 315 315 314 313 313 314 313 303 304 303 307 306 306 307 307 307 306 307 307 308 308 310 308 306 304 308 309 309 309 309 311 310 309 309 308 310 310 308 308 308 309 309 309 309
315 316 315 314 313 313 313 313 313 315 308 303 304 306 306 306 307 307 307 307 307 307 309 309 308 308 306 305 309 309 309 309 309 309 309 310 310 307 309 309 309 309 309 309 309 308 307
314 314 314 314 313 313 313 313 313 315 315 304 304 306 307 306 307 307 307 307 308 307 309 310 308 308 307 308 309 309 309 310 310 310 309 309 309 310 309 310 306 307 309 308 307 306 307
313 314 314 314 313 313 313 313 313 313 315 311 304 305 307 306 306 307 307 307 306 308 309 310 307 308 308 309 310 309 310 310 310 311 310 309 308 305 307 307 303 303 303 306 304 305 306
313 313 313 313 313 313 312 312 313 313 314 315 305 305 305 307 307 308 307 308 309 309 309 309 308 306 307 309 309 309 309 309 310 309 309 308 305 304 304 306 304 301 304 304 305 304 305
312 312 312 312 312 312 311 312 312 313 313 315 306 306 306 307 308 308 308 309 308 309 308 307 308 307 306 307 309 308 309 308 307 307 308 305 303 305 305 305 308 305 306 305 306 305 305
311 311 311 311 311 311 310 310 311 312 312 314 307 307 306 306 308 308 308 307 305 306 308 305 307 306 306 308 308 307 308 308 306 306 308 305 308 308 307 306 306 306 306 306 304 304 305
311 310 309 310 310 309 309 308 309 312 312 313 309 308 306 306 308 308 307 306 306 306 306 306 307 304 306 307 306 306 309 306 306 307 305 306 309 307 307 306 306 306 305 304 304 304 306
309 309 309 308 308 307 307 307 308 310 312 312 311 310 307 306 307 309 308 308 309 307 305 306 306 305 305 307 305 305 306 306 306 308 305 307 308 307 308 306 305 303 306 306 307 306 303
308 308 308 308 307 307 306 305 306 308 311 312 314 310 308 306 306 305 307 309 310 308 308 308 308 306 306 305 306 305 305 306 306 308 308 308 306 309 307 308 306 306 304 307 307 307 307
307 307 307 307 307 306 306 305 305 307 310 312 313 310 309 309 305 305 305 308 308 309 312 307 306 306 305 305 304 306 304 306 308 307 306 308 309 309 307 308 307 307 305 305 306 306 306
309 306 305 305 305 305 306 305 304 306 309 312 312 308 311 307 307 307 308 308 310 314 311 309 306 306 307 304 304 303 304 303 304 306 305 305 306 308 308 306 306 305 303 304 304 305 311
310 307 306 306 305 305 305 305 304 306 309 311 312 310 310 308 306 307 309 310 314 316 307 309 308 306 305 305 305 304 305 303 305 312 309 306 307 305 304 305 304 304 305 311 310 310 313
312 310 308 307 306 306 305 305 305 306 308 311 313 311 310 308 308 308 308 309 313 309 308 306 306 305 307 305 305 304 305 305 303 303 304 308 313 305 304 306 306 305 303 306 307 308 306
312 311 310 309 307 306 305 305 305 306 309 311 314 313 310 308 308 309 306 310 311 307 306 307 306 309 308 306 305 304 304 306 305 303 308 307 310 303 305 305 304 305 306 303 306 301 304
313 311 310 309 308 306 305 307 307 307 309 313 314 311 311 308 306 305 305 307 305 305 305 306 310 306 311 308 311 306 305 304 306 304 302 303 308 304 303 304 304 304 301 306 304 306 307
314 313 311 309 308 306 308 309 308 308 310 314 314 311 311 307 305 303 309 305 304 304 305 306 307 307 307 309 307 306 305 304 304 303 302 302 303 307 304 305 305 304 305 303 302 305 307
316 315 312 309 308 309 311 311 310 310 311 314 311 314 311 307 309 299 304 304 305 305 304 305 305 306 308 305 309 307 306 304 303 302 304 303 302 306 307 301 300 303 304 303 306 304 303
317 316 314 312 311 312 313 312 311 311 312 312 308 308 311 309 313 304 304 305 305 305 304 305 306 305 304 307 313 306 305 303 302 302 302 302 304 307 310 305 301 303 302 302 301 302 303
315 317 316 313 313 313 314 313 312 311 312 312 306 313 310 301 300 305 306 307 307 303 304 304 305 303 305 308 304 308 306 303 303 302 305 302 303 306 311 310 303 304 301 300 301 301 303
317 315 317 316 313 314 314 314 313 311 312 313 302 307 304 312 309 305 307 307 308 309 304 303 305 306 307 311 309 306 303 303 303 306 302 303 305 302 303 302 301 303 303 302 301 302 302
318 317 315 317 316 313 314 315 314 313 312 311 308 306 298 300 302 310 309 307 309 307 306 307 306 306 304 310 312 315 307 305 309 302 302 301 307 301 303 301 298 298 299 298 300 300 298
319 318 316 316 317 316 314 314 315 313 313 310 301 301 307 304 303 310 312 312 310 306 305 306 304 305 305 306 304 303 303 303 304 303 302 301 303 302 306 296 297 299 298 297 297 295 295
318 318 318 315 317 317 315 314 315 314 314 313 308 306 309 309 305 309 312 309 310 307 310 304 303 305 302 301 301 300 297 297 298 298 298 300 300 301 304 297 301 298 295 296 297 297 294
316 319 319 318 315 317 316 315 315 314 314 314 312 310 307 309 307 311 310 310 304 303 305 304 303 300 300 303 310 311 308 301 294 292 293 295 300 304 299 296 297 297 294 294 295 296 292
313 317 319 320 318 315 316 315 315 315 314 314 314 311 309 308 308 311 310 307 309 307 308 304 299 298 302 305 309 314 316 310 305 296 292 293 294 300 296 298 303 298 292 291 291 295 289
306 311 317 318 319 316 316 315 315 314 313 313 313 313 313 310 308 307 310 309 307 309 312 303 300 301 299 305 310 312 311 302 308 303 296 295 294 300 299 298 296 294 290 290 297 297 289
304 305 307 310 315 317 315 315 316 315 314 313 314 313 313 311 308 306 306 307 305 308 312 302 305 301 301 307 310 309 307 302 300 297 296 297 296 295 293 293 297 289 290 295 292 289 291
303 303 305 305 307 310 313 314 315 315 315 315 313 313 314 310 303 300 298 299 299 299 305 301 307 302 304 307 304 301 301 294 297 303 293 300 298 298 296 297 291 288 291 286 287 288 285
Wind_Speed
15 16 17 19 21 24 27 29 31 30 24 23 17 17 11 6 5 4 4 5 6 6 7 7 6 6 3 7 3 16 18 15 10 10 12 4 6 3 4 3 2 5 2 2 1 3 1
13 15 17 20 21 24 27 29 30 32 28 24 19 17 14 7 6 5 5 6 6 7 9 12 9 8 5 7 10 17 15 12 16 14 13 10 3 2 6 4 4 2 3 2 3 3 2
13 14 15 18 20 23 25 27 30 31 29 24 22 17 16 7 6 5 5 6 5 5 6 7 3 4 12 2 11 17 11 11 13 11 4 7 3 4 2 3 3 2 3 2 6 5 2
11 13 15 17 20 21 24 26 28 30 32 25 23 17 16 7 5 4 4 5 4 4 5 4 6 4 4 7 11 19 13 7 9 9 7 6 7 7 5 1 5 5 4 4 4 8 3
10 11 13 15 18 19 22 24 27 29 32 30 23 20 12 10 4 4 5 4 4 6 7 5 4 4 2 6 11 18 13 7 5 6 9 5 6 4 6 3 4 7 2 4 7 3 4
9 11 13 14 17 19 21 23 26 28 31 32 23 22 12 12 5 7 15 15 13 1 3 3 9 5 7 6 9 13 8 8 5 4 4 9 6 5 5 6 2 4 3 4 4 5 6
8 10 13 14 15 19 21 23 25 27 30 33 24 24 15 8 3 9 3 3 4 7 16 5 1 4 3 13 3 13 13 2 5 8 6 6 9 5 3 2 2 2 2 3 4 1 4
8 9 11 14 16 17 20 22 24 25 28 32 24 25 18 6 11 3 2 6 4 4 7 5 2 3 2 7 6 17 14 5 7 5 5 6 4 2 1 2 1 2 1 3 5 3 3
10 10 12 13 15 17 19 21 23 25 26 30 24 25 18 2 5 8 11 8 6 3 6 3 2 2 3 5 3 9 8 3 6 6 7 6 1 3 1 4 6 3 1 3 4 6 1
11 11 12 13 14 16 18 20 21 24 25 28 25 24 18 2 3 5 5 5 3 2 5 9 6 5 4 3 4 4 7 2 6 3 3 5 3 1 2 3 1 2 2 1 4 4 3
13 12 13 13 14 15 17 19 21 22 24 25 26 21 18 16 4 4 3 3 1 1 3 5 7 6 5 7 5 7 8 5 4 2 2 1 4 4 4 2 1 5 4 1 0 2 2
15 15 13 14 13 15 16 18 19 21 22 23 25 14 18 5 10 5 3 3 1 6 3 3 3 6 5 7 7 6 7 8 1 4 5 1 1 2 2 1 2 5 3 3 3 2 2
16 15 15 14 13 14 15 17 18 20 21 22 24 9 18 10 3 2 2 2 5 5 2 2 2 5 2 6 6 8 5 8 5 4 7 6 2 3 3 2 2 7 5 4 5 4 3
16 15 14 14 13 13 14 16 17 18 21 21 21 5 9 10 5 2 1 5 3 1 2 1 1 0 3 5 4 7 3 4 6 5 3 3 5 4 6 3 1 4 2 4 3 3 4
17 16 14 14 13 13 13 14 17 18 21 21 16 4 3 11 4 1 5 5 3 4 3 3 1 4 3 3 2 4 3 2 1 4 3 3 4 1 3 2 1 1 3 1 0 2 1
17 16 15 14 14 12 11 13 15 18 20 20 9 3 3 9 2 0 5 4 3 1 2 1 2 1 0 4 2 4 2 1 2 2 0 2 4 1 1 1 3 2 5 2 3 4 6
18 17 15 14 13 10 9 11 14 17 20 13 4 2 4 4 3 5 4 4 3 1 1 1 3 3 1 1 1 1 1 1 1 2 2 2 2 3 1 1 2 2 1 4 3 3 3
20 18 16 14 12 9 8 9 12 15 19 9 3 2 5 3 4 2 2 4 3 3 1 1 3 2 2 2 1 1 1 0 2 3 2 1 3 4 5 2 1 1 3 3 3 4 3
22 20 17 15 11 10 8 8 9 12 15 5 2 2 4 2 3 1 1 2 1 3 3 2 2 2 1 2 2 1 1 1 3 4 5 4 0 4 4 3 2 2 3 3 2 2 6
25 23 20 17 15 12 10 7 7 8 11 5 2 2 4 4 1 5 4 3 2 3 2 2 3 2 2 1 0 1 2 2 2 1 3 3 3 5 5 2 1 5 4 4 4 3 3
27 26 23 20 18 16 12 8 7 6 7 4 3 1 2 1 3 3 2 3 4 3 1 1 1 3 5 3 1 3 3 2 2 2 2 4 4 5 9 8 6 10 16 7 12 11 6
31 28 27 24 21 18 16 11 8 6 5 2 3 3 2 1 1 2 2 5 6 3 5 3 4 5 5 5 7 5 5 4 5 2 4 2 2 1 4 10 3 7 11 7 12 12 9
33 31 29 28 25 21 18 14 11 7 3 2 2 2 2 0 2 3 3 4 6 5 4 2 6 5 4 8 3 2 2 2 2 6 7 5 2 0 3 2 5 9 8 7 4 4 5
28 34 31 29 29 25 21 19 15 11 8 3 3 4 3 1 2 4 3 5 5 4 1 1 3 4 1 4 3 4 5 4 4 3 2 4 4 2 3 4 2 2 2 1 5 6 7
26 32 34 32 30 27 24 21 19 16 14 10 4 3 3 2 3 2 4 3 2 1 2 3 5 2 4 3 1 3 2 1 3 4 2 3 4 2 3 3 7 2 3 4 4 5 1
6 27 32 33 33 31 28 25 22 19 17 16 13 8 4 4 5 3 4 4 4 4 2 4 2 1 1 2 3 4 4 3 3 1 3 3 4 2 2 2 5 1 3 3 3 4 4
10 2 23 33 31 32 30 27 26 22 21 22 11 18 4 3 4 6 4 5 5 2 2 2 3 3 1 3 3 4 4 1 4 5 5 3 1 7 5 4 8 4 5 5 0 4 4
10 6 3 8 22 30 31 30 28 28 27 26 18 22 15 3 2 5 5 5 3 4 5 3 3 1 1 4 3 3 4 5 2 3 6 7 7 4 2 2 8 6 4 6 2 2 2
8 8 1 1 4 14 20 22 24 27 30 33 12 24 28 4 1 2 3 2 0 1 3 5 0 4 4 3 2 2 3 2 3 3 1 3 5 4 9 6 1 4 0 2 2 2 2
Wind_Direction
46 40 39 43 40 40 39 36 34 31 31 26 31 26 27 55 50 70 78 88 85 63 38 30 34 31 25 44 12 342 351 7 26 44 51 37 51 85 87 76 58 69 111 67 83 63 98
50 43 39 42 38 37 34 32 32 30 27 26 25 29 26 50 48 85 87 88 87 72 64 52 59 54 70 66 339 347 355 20 36 46 45 42 79 92 88 63 66 86 87 87 44 12 49
42 36 40 37 36 32 31 30 29 28 26 24 25 27 31 44 64 81 89 94 91 57 35 26 17 66 65 42 359 3 12 31 31 41 58 47 63 81 95 87 327 98 102 70 20 344 358
38 32 28 29 28 28 26 24 26 26 23 22 23 21 28 51 59 70 91 100 93 57 28 33 31 64 86 10 12 16 26 45 42 55 74 48 72 95 56 136 27 46 49 31 356 356 333
24 24 22 20 22 21 22 20 20 22 20 18 21 17 21 37 58 85 94 81 105 96 52 44 45 73 43 344 5 5 10 7 18 59 51 56 66 75 26 54 33 14 49 7 322 47 320
5 8 13 16 12 14 15 14 15 17 18 15 17 16 16 33 73 111 109 81 76 28 1 54 41 52 12 311 326 350 9 23 37 336 23 36 50 63 30 33 57 339 359 320 271 337 357
356 358 358 1 11 6 8 10 10 11 14 14 15 12 18 33 86 154 207 325 20 1 31 78 161 136 306 326 356 3 358 4 34 55 40 12 60 48 14 52 152 148 210 252 265 314 324
338 346 352 349 359 4 3 3 5 6 10 12 12 11 11 27 34 177 226 75 98 143 77 20 34 3 330 345 7 349 7 63 47 58 332 36 62 320 201 54 109 162 277 297 279 15 351
315 330 336 345 350 354 359 359 1 1 4 9 8 10 8 40 67 65 89 96 100 113 89 359 11 6 323 11 52 333 21 46 66 54 24 94 290 304 127 41 33 13 69 306 274 326 200
300 314 321 330 341 346 352 355 357 358 360 4 5 7 11 18 79 80 69 99 92 45 80 326 346 0 350 344 51 340 17 92 35 94 82 82 338 33 76 73 58 359 189 319 310 10 319
292 301 309 318 331 339 346 351 351 356 356 360 2 7 8 33 86 58 125 127 94 71 44 322 320 315 352 77 306 358 25 31 81 68 97 289 9 24 52 358 4 255 23 281 125 92 12
291 292 301 310 322 332 338 345 347 351 352 356 356 359 13 23 54 66 102 114 38 46 256 18 337 346 21 14 3 311 20 36 107 101 30 67 327 45 321 293 258 304 103 64 58 77 25
289 293 293 300 316 324 333 338 343 347 347 352 350 341 17 35 48 73 85 41 43 120 353 347 343 16 81 350 2 24 39 20 41 48 21 348 20 340 33 331 324 12 33 352 1 7 236
280 282 292 301 304 315 326 331 339 345 344 350 347 343 5 30 32 109 57 55 98 277 243 188 328 269 85 5 23 1 57 36 28 41 77 48 326 22 343 63 205 22 60 130 295 292 289
276 279 286 293 301 308 317 329 338 340 343 345 342 350 352 359 31 120 80 59 207 200 145 156 26 74 4 11 349 57 52 116 357 18 89 28 281 85 60 346 50 15 52 212 166 56 37
270 276 281 286 289 299 317 327 337 340 342 342 345 349 3 359 35 38 75 158 172 144 117 87 112 358 108 333 26 36 3 241 142 63 326 167 312 95 290 132 38 60 154 42 27 334 305
266 269 273 276 281 292 310 326 336 343 342 343 6 27 356 11 37 45 113 172 179 157 127 77 151 129 121 37 60 1 348 203 203 88 62 109 97 279 242 111 139 43 43 56 120 155 229
258 265 268 271 276 285 301 322 338 346 350 4 34 345 350 25 47 35 101 150 152 148 115 107 104 96 142 154 125 239 249 258 129 140 82 19 146 274 243 110 94 222 196 146 132 242 235
251 255 261 265 266 269 284 314 330 348 1 3 65 267 354 32 116 57 229 75 67 124 160 141 112 75 59 115 10 177 246 333 155 155 165 180 21 322 338 26 37 198 201 171 93 82 210
246 247 251 254 256 257 267 288 317 341 357 17 73 359 338 50 62 128 142 138 119 20 105 104 125 106 124 93 115 225 244 195 191 218 127 156 169 212 235 257 138 275 208 199 168 201 222
242 244 245 248 251 253 258 270 292 316 347 15 32 177 169 334 18 86 88 143 135 175 43 188 27 220 165 166 237 225 209 203 159 169 109 172 234 205 256 262 227 257 265 229 219 228 220
239 240 241 242 245 247 248 252 264 284 329 52 136 141 28 120 29 105 9 210 174 163 151 230 212 187 186 194 201 233 174 188 232 167 176 190 261 84 259 271 280 266 264 214 234 250 256
239 234 237 237 237 240 244 246 247 252 255 107 138 113 113 359 107 123 215 182 209 162 200 197 187 144 212 241 193 140 155 105 199 173 191 172 188 179 258 337 304 277 257 181 189 203 187
241 232 230 235 233 234 236 236 233 233 224 195 157 129 92 223 162 207 183 175 189 208 224 143 184 178 99 79 90 73 67 57 43 14 8 159 146 170 281 341 255 268 54 153 226 245 219
237 234 230 235 234 230 234 234 232 224 219 214 193 159 133 185 178 254 203 189 132 56 242 222 193 156 150 99 76 308 266 236 63 44 16 224 158 223 247 233 301 228 189 165 185 266 173
267 235 235 236 229 227 227 228 228 227 214 214 217 198 125 114 239 136 147 165 196 203 274 206 77 73 88 137 146 225 224 224 227 167 36 72 63 157 146 230 271 195 183 151 130 271 186
341 115 231 231 237 223 226 232 229 225 219 215 220 212 157 167 217 152 186 185 168 168 187 130 168 160 318 159 185 200 224 168 220 191 166 117 132 220 214 252 281 208 170 151 147 298 173
325 342 82 176 206 213 223 227 228 224 222 212 224 210 197 185 226 186 169 152 125 185 181 135 114 200 115 189 205 201 197 209 186 168 175 174 162 206 133 206 273 154 117 187 168 110 147
286 307 10 26 189 192 205 215 220 219 220 216 215 209 212 180 131 140 102 146 8 58 134 194 183 158 169 149 217 133 191 145 170 233 287 235 207 185 189 218 136 177 70 62 74 120 150